Location: *
(13.2257°S, 48.7193°W)
Time: 00:43:34
(UTC+00:00)

Meteor 1-28 Rocket - Pass Details

Date: 20 May 2026
Orbit: 419 x 427 km, 97.6° (Epoch: 10 June)

Event Time Altitude Azimuth Distance (km) Brightness Sun altitude
Rises 08:14:45 0° 162° (SSE) 2,389 6.6 -17.6°
Reaches altitude 10° 08:16:48 10° 156° (SSE) 1,516 5.6 -17.1°
Maximum altitude 08:19:57 50° 80° (E) 545 3.7 -16.4°
Drops below altitude 10° 08:23:04 10° 3° (N) 1,496 5.8 -15.7°
Sets 08:25:05 0° 357° (N) 2,352 6.7 -15.2°
